Zurück zum Katalog

FENGYUN 1C DEB

AktivPO
NORAD 43358·DEBRIS·🇨🇳 China

Gestartet May 10, 1999 von Taiyuan Satellite Launch Center

Loading…

Nächste Überflüge (nächste 24 Stunden)

TLE

AktuellSource: Space-Track

Epoche: Sep 14, 2026, 04:59 UTC

1 43358U 99025EYP 26257.20790229  .00001228  00000-0  15532-2 0  9992
2 43358  98.6929 344.0250 0363058 225.8267 131.2496 13.41018609574222

Verfolge FENGYUN 1C DEB in Echtzeit mit AllMySat

Download on the App Store